Location: La Cornouaille
(47.9640°N, 1.2941°W)
Time: 17:13:44
(UTC+00:00)

Daily predictions for brighter satellites

Satellite Brightness Start Highest point End
(mag) Time Altitude Azimuth Time Altitude Azimuth Time Altitude Azimuth
Landsat 7 3.9 20:38:34 10° SSE 20:43:20 84° ENE 20:48:08 10° NNW
CZ-2C R/B 4.2 20:40:48 10° NNE 20:45:26 47° E 20:50:02 10° S
Spot 2 Rocket 4.0 20:41:25 10° SE 20:46:13 45° ENE 20:51:03 10° N
Cosmos 1707 2.7 20:42:59 10° S 20:46:50 70° E 20:50:44 10° NNE
Okean 1 Rocket 3.3 20:42:40 10° NNW 20:47:01 74° W 20:51:24 10° S
Lacrosse 5 rocket 2.6 20:45:01 10° SSE 20:47:18 16° SE 20:49:34 10° E
Okean 2 3.6 20:43:23 10° SSW 20:47:29 78° W 20:51:35 10° N
Cosmos 1420 Rocket 4.1 20:43:14 10° SSW 20:48:25 85° WNW 20:53:40 10° NNE
Cosmos 1455 Rocket 3.8 20:44:54 10° N 20:49:07 40° ENE 20:53:19 10° SE
In-Cosmos 22 4.3 20:44:40 10° S 20:49:47 53° E 20:54:56 10° NNE
ERS-1 Rocket 3.9 20:45:17 10° SE 20:49:48 34° ENE 20:54:20 10° N
Cosmos 220 Rocket 4.4 20:46:58 10° SSW 20:51:15 69° WNW 20:55:31 10° NNE
MetOp-B 4.2 20:50:19 10° SSE 20:55:40 89° ENE 21:01:04 10° NNW
Cosmos 1378 Rocket 4.3 20:52:14 10° SSW 20:56:30 55° WNW 21:00:50 10° N
BREEZE-M DEB (TANK) 3.0 20:57:30 10° S 20:59:17 18° SE 21:01:45 10° E
Cosmos 2333 Rocket 3.6 20:56:43 10° SSE 21:00:49 20° E 21:04:54 10° NE
Cosmos 1727 Rocket 4.1 20:55:01 10° S 21:01:18 74° E 21:07:33 10° NNE
Cosmos 1953 2.6 21:02:24 10° N 21:06:24 54° ENE 21:10:22 10° SSE
Cosmos 1741 Rocket 4.1 21:01:45 10° NNW 21:07:03 81° ENE 21:12:20 10° SSE
Cosmos 1626 3.3 21:04:16 10° SSE 21:07:23 27° E 21:10:33 10° NNE
SPOT 3 Rocket 4.0 21:02:53 10° S 21:07:59 60° WSW 21:13:09 10° NNW
USA 238 DEB 4.2 21:01:38 10° SW 21:08:10 65° NW 21:15:06 10° NE
USA 238 4.2 21:01:44 10° SW 21:08:16 66° NW 21:15:12 10° NE
Cosmos 1844 4.0 21:05:57 10° NNW 21:11:27 57° ENE 21:16:41 11° SE
Cosmos 2219 Rocket 3.5 21:07:45 10° SSE 21:11:53 21° E 21:16:02 10° NE
Cosmos 2285 Rocket 4.4 21:06:24 10° SSW 21:12:49 71° WNW 21:19:16 10° NNE
CENTAUR R/B 3.3 21:10:17 10° WSW 21:16:17 61° NW 21:23:33 10° NE
Cosmos 1802 Rocket 4.3 21:11:35 10° N 21:17:46 57° ENE 21:23:39 12° SSE
DNEPR-1 R/B 4.4 21:18:32 10° NNW 21:22:34 41° NE 21:26:37 10° ESE
NOSS 8 (A) 4.2 21:20:52 10° SW 21:24:12 84° NW 21:27:07 10° NE
KORONAS-FOTON 3.7 21:22:33 10° S 21:26:22 82° E 21:30:10 10° N
Cosmos 1025 Rocket 3.3 21:22:43 10° SSE 21:26:55 50° E 21:31:09 10° NNE
Aureole 1 Rocket 4.1 21:23:23 10° NNW 21:29:07 85° ENE 21:35:50 13° SSE
CARTOSAT-1 3.6 21:27:34 11° S 21:31:43 78° WSW 21:36:04 10° NNW
Cosmos 1459 Rocket 3.9 21:26:00 10° N 21:32:05 85° E 21:37:54 11° S
Cosmos 1461 2.9 21:28:42 10° NW 21:32:56 73° SW 21:36:05 16° SSE
Resurs 01 Rocket 3.5 21:29:31 10° SSW 21:33:14 26° W 21:36:58 10° NW
SL-16 R/B 2.9 21:28:15 10° SW 21:33:48 57° WNW 21:39:25 10° NNE
Cosmos 2360 Rocket 2.2 21:28:13 10° SSW 21:33:49 73° ESE 21:39:28 10° NNE
Cosmos 2322 Rocket 2.6 21:30:11 10° SW 21:35:52 69° WNW 21:41:35 10° NNE
USA 267 4.2 21:31:49 10° E 21:38:00 47° NNE 21:44:12 10° NW
JB-3 4.5 21:34:06 10° N 21:38:03 78° WNW 21:42:04 10° SSW
Cosmos 1975 Rocket 3.5 21:36:27 10° SSW 21:40:47 65° WNW 21:45:09 10° N
Cosmos 1900 4.3 21:36:14 10° NW 21:41:10 81° NE 21:44:58 17° SE
Cosmos 1000 Rocket 4.5 21:35:45 10° S 21:41:54 87° E 21:48:04 10° N
Cosmos 1674 3.0 21:39:11 10° SSW 21:42:52 62° W 21:46:34 10° N
Meteor 1-16 Rocket 4.4 21:38:39 10° NNW 21:44:06 65° W 21:49:14 11° S
Cosmos 1110 Rocket 3.9 21:39:17 10° SSW 21:44:27 80° ESE 21:49:41 10° NNE
ATLAS CENTAUR R/B 1.8 21:40:36 10° NNW 21:44:53 63° NE 21:48:22 16° SE
Meteor 2-11 Rocket 4.5 21:39:01 10° N 21:45:11 86° W 21:50:42 13° S
SPOT 5 3.0 21:41:32 14° SSE 21:46:04 83° WSW 21:51:00 10° NNW
Cosmos 968 Rocket 4.2 21:44:47 10° NNW 21:49:39 42° ENE 21:53:28 16° SE
Cosmos 1300 3.0 21:48:28 10° N 21:52:13 51° ENE 21:54:30 21° SSE
COSMOS 2428 3.4 21:48:21 15° SSE 21:52:24 35° ESE 21:57:35 10° NE
Terra 1.8 21:49:22 17° SSE 21:53:04 84° ENE 21:57:52 10° NNW
Cosmos 2061 Rocket 4.1 21:47:29 10° N 21:53:58 80° E 21:59:13 16° SSE
FALCON 9 DEB 4.4 21:54:51 20° ESE 21:54:51 20° ESE 21:56:36 10° E
Cosmos 2322 3.9 21:48:40 10° S 21:54:07 51° ESE 21:59:35 10° NE
Cosmos 1864 Rocket 4.5 21:49:39 10° N 21:55:54 79° E 22:00:47 17° SSE
Cosmos 2278 Rocket 3.4 21:54:05 10° NNW 21:59:13 33° NE 22:04:01 11° ESE
Cosmos 405 2.9 21:56:25 10° N 21:59:53 77° ENE 22:01:49 24° SSE
Lacrosse 5 3.9 21:57:27 10° W 22:00:39 17° WSW 22:03:51 10° SSW
Cosmos 2123 Rocket 4.0 21:59:11 12° S 22:05:08 83° E 22:11:29 10° N
SL-8 R/B 4.0 22:03:32 10° W 22:08:10 48° SSW 22:10:57 22° SE
Cosmos 1844 Rocket 3.3 22:02:52 10° NW 22:08:20 48° WSW 22:12:33 16° S
Cosmos 1340 2.6 22:06:52 17° S 22:09:40 88° WNW 22:13:27 10° N
ARIANE 5 R/B 3.9 22:06:43 11° SSW 22:10:38 34° W 22:14:45 10° NNW
Cosmos 1346 Rocket 3.8 22:11:16 23° SE 22:12:50 31° E 22:16:25 10° NNE
Cosmos 2233 Rocket 4.0 22:06:51 10° N 22:13:00 69° E 22:17:17 21° SSE
FALCON 9 DEB 3.3 22:09:38 10° WSW 22:13:04 73° NNW 22:16:29 10° ENE
H-2A R/B 3.3 22:09:10 10° NNE 22:13:16 79° ESE 22:16:08 19° S
FALCON 9 DEB 3.1 22:11:35 10° SW 22:14:32 43° SE 22:17:30 10° ENE
GEOS 3 Rocket 4.1 22:11:18 15° ESE 22:15:44 59° NE 22:21:00 10° NW
FALCON 9 DEB 3.3 22:18:01 35° SSE 22:18:22 36° SE 22:21:16 10° ENE
Meteor 2-5 Rocket 3.6 22:18:55 17° S 22:23:16 83° E 22:28:53 10° NNE
FALCON 9 DEB 3.0 22:21:32 14° SW 22:23:58 48° SE 22:26:59 10° ENE
Lacrosse 5 rocket 1.1 22:22:19 10° WSW 22:25:58 78° NW 22:29:34 10° NE
Cosmos 1606 Rocket 4.1 22:22:39 10° N 22:27:01 48° ENE 22:29:16 25° SE
ATLAS 3B R/B 2.5 22:20:49 10° SSW 22:27:21 79° SE 22:34:08 10° NE
ERS-1 Rocket 4.2 22:24:30 13° SSW 22:28:34 35° W 22:33:11 10° NNW
Cosmos 2333 4.4 22:27:24 10° SW 22:33:09 73° WNW 22:38:54 10° NNE
ALOS 2 4.0 22:32:40 17° ESE 22:35:09 28° ENE 22:38:53 10° N
Cosmos 1943 Rocket 4.4 22:34:43 10° N 22:38:22 18° NE 22:42:01 10° E
Spot 4 4.2 22:39:08 25° SE 22:41:44 56° ENE 22:46:25 10° N
Cosmos 1626 4.2 22:39:35 10° SW 22:42:34 23° WNW 22:45:37 10° NNW
Cosmos 2333 Rocket 2.4 22:38:45 10° SW 22:44:29 72° WNW 22:50:15 10° NNE
USA 215 3.2 22:39:50 10° ENE 22:46:18 61° SE 22:52:45 10° SW
Cosmos 1302 Rocket 4.4 22:44:59 10° SW 22:50:12 63° WNW 22:55:26 10° NNE
Meteor 2-10 Rocket 3.5 22:47:03 10° NNW 22:52:09 76° W 22:54:49 28° S
Cosmos 2219 Rocket 2.5 22:49:37 10° SW 22:55:16 69° WNW 23:00:58 10° NNE
Cosmos 1464 Rocket 4.3 22:52:02 10° N 22:58:18 58° ENE 23:02:03 25° SSE
Cosmos 1867 3.6 22:53:28 10° NW 22:58:58 76° SW 23:01:49 29° SSE
Cosmos 1607 4.2 22:54:10 10° NW 23:00:37 71° NE 23:05:04 21° SE
Cosmos 389 Rocket 2.6 22:59:42 10° NNW 23:03:05 59° W 23:04:01 41° SSW
Iridium 2 3.5 23:05:20 41° S 23:06:33 85° E 23:10:19 10° N
COBE Rocket 4.0 23:04:31 30° SSE 23:07:02 70° ENE 23:11:58 10° N
Meteor 1-24 Rocket 4.2 23:03:16 17° SSW 23:07:22 54° WNW 23:12:46 10° N
SL-16 R/B 3.8 23:06:17 17° ESE 23:07:52 19° E 23:11:45 10° NE
Cosmos 2237 Rocket 2.4 23:09:08 29° S 23:11:46 54° ESE 23:17:15 10° NE
Cosmos 2228 3.6 23:07:32 10° NNW 23:11:48 49° W 23:13:45 28° SSW
Meteor 1-4 Rocket 4.0 23:12:42 10° NNE 23:15:41 26° ENE 23:16:45 22° E
Cosmos 2360 Rocket 4.4 23:13:51 10° W 23:18:24 24° NW 23:22:58 10° N
Cosmos 1455 2.1 23:15:40 10° NNW 23:19:31 77° W 23:20:36 44° S
USA 267 3.2 23:14:47 13° ESE 23:20:42 88° NNE 23:27:17 10° NW
Cosmos 2369 Rocket 4.4 23:16:48 10° N 23:20:58 20° NE 23:25:06 10° E
Cosmos 1184 Rocket 2.6 23:22:45 61° SSE 23:23:09 71° E 23:26:25 10° NNE
ATLAS CENTAUR R/B 3.3 23:20:14 10° WNW 23:23:26 20° WSW 23:24:30 18° SW
Okean 1-7 Rocket 3.7 23:27:36 38° SSE 23:29:09 64° E 23:33:35 10° NNE
FALCON 9 DEB 3.2 23:26:40 12° WSW 23:29:33 66° NNW 23:32:41 10° ENE
Cosmos 1777 Rocket 4.4 23:25:14 10° NNW 23:30:28 57° ENE 23:33:24 25° SE
Terra 4.2 23:29:20 10° WSW 23:31:28 13° W 23:33:36 10° WNW
Cosmos 2034 Rocket 4.0 23:26:15 10° N 23:32:27 73° E 23:35:44 29° SSE
Meteor 1-21 Rocket 4.2 23:33:20 32° S 23:36:05 79° E 23:41:50 10° NNE
COSMOS 2428 3.7 23:31:06 10° SW 23:36:35 44° NW 23:42:06 10° NNE
Cosmos 1354 Rocket 4.1 23:31:51 10° NNW 23:37:11 68° WSW 23:39:28 34° S
Cosmos 1992 Rocket 4.5 23:34:10 19° SW 23:37:47 58° WNW 23:42:58 10° NNE
FAST Rocket 4.3 23:37:31 59° S 23:38:04 86° ESE 23:42:20 10° N
Cosmos 192 4.3 23:38:55 35° SSW 23:41:02 79° ESE 23:45:59 10° NNE
Cosmos 2297 4.4 23:36:58 10° NNW 23:42:27 50° NE 23:46:31 18° SE
Cosmos 2058 Rocket 3.3 23:38:38 10° NNW 23:43:02 59° W 23:44:34 37° SSW
Cosmos 2278 Rocket 2.6 23:38:04 10° NW 23:43:30 48° WSW 23:45:51 31° SSW
Cosmos 1812 Rocket 4.4 23:39:22 10° N 23:43:30 42° ENE 23:45:17 28° SE
GENESIS II 4.3 23:46:51 32° SW 23:48:34 73° NW 23:52:29 10° NE
FALCON 9 DEB 4.1 23:47:11 10° W 23:50:10 43° NNW 23:53:08 10° ENE
FALCON 9 DEB 3.9 23:50:59 10° W 23:54:01 47° NNW 23:57:03 10° ENE
